一网星座-0263星 (ONEWEB-0263 )

导读 | 星芒AI

ONEWE-0263 是 OneWeb 卫星星座计划中的一颗低轨通信卫星,旨在为全球提供高速互联网服务。该卫星由阿丽亚娜集团制造,采用标准化设计以降低发射和运营成本。它运行在约 1200 公里的近地轨道,与其他 OneWeb 卫星共同构建覆盖全球的宽带网络,特别服务于偏远和网络基础设施薄弱的地区。该星座计划由数百颗卫星组成,致力于提升全球通信的可达性和可靠性。

基本信息
目录编号:
48981
目录名称:
ONEWEB-0263
国际标识:
2021-060Q
轨道中心:
EARTH
卫星名称:
一网星座-0263星
卫星全名:
一网星座-0263星 (ONEWEB-0263 )
卫星状态:
在轨 (已飞行1582 天)
发射日期:
2021-07-01 UTC
国别 :
英国 (GB)
星等 :
--
轨道信息
数据来源 国际轨道数据
星历时间: 2025-10-30T06:51:20+0800
6小时前
查看轨道信息
半长轴: 7575.893km
偏心率: 0.0002117
轨道倾角: 87.898°
近地点辐角 95.403°
升交点赤经 274.646°
平近点角 264.734°
近地点: 1196.154km
远地点: 1199.362km
周期: 109.373分钟
每日圈数: 13.165945
详细信息
平衡模式:
三轴稳定
覆盖范围:
全球
运营商:
一网卫星公司
运营商所在国:
英国
制造商(研发单位):
一网卫星公司
制造商所在国:
英国
使用方式:
暂无
卫星简介
OneWeb卫星网络由648颗重约125公斤的微型卫星组成,运行在1200公里的轨道上。 每颗卫星都能够提供至少每秒8千兆位的吞吐量,以使用其高吞吐量的Ku频段有效载荷为家庭和移动平台提供互联网接入。该卫星仍在工作。
2D轨道图
3D轨道图
轨道高度分析图
轨道倾角分析图
轨道综合分析图
查看轨道综合分析图